Simultaneous Nadir Overpasses (SNOs) Predictions

Prediction of SNOs between METOP-B and NOAA-19 Satellite Orbit:

Table of predicted SNOs for the next 14.0 days since TLE Epoch: 7/20/2024
Index Date (METOP-B) Time (METOP-B) Lat,Lon (METOP-B) SZA (METOP-B ) Date (NOAA-19) Time (NOAA-19) Lat,Lon (NOAA-19) SZA (NOAA-19 ) Distance(km) Time Diff (sec)
1 07/25/2024 01:39:52 45.00, 123.88 37.07 07/25/2024 01:38:40 44.91, 124.41 36.88 43.02 72
2 07/25/2024 02:06:36 -48.87, 98.57 82.18 07/25/2024 02:05:29 -48.80, 98.21 82.45 27.72 67
3 07/25/2024 03:21:13 45.04, 98.56 37.10 07/25/2024 03:20:37 44.95, 98.94 36.91 31.84 36
4 07/25/2024 04:11:57 -45.05, -94.12 142.90 07/25/2024 04:11:34 -45.00, -93.78 143.07 27.66 23
5 07/25/2024 05:02:35 45.03, 73.21 37.10 07/25/2024 05:02:34 45.00, 73.47 36.94 20.74 1
6 07/25/2024 05:53:06 -45.78,-119.18 142.62 07/25/2024 05:53:19 -45.74,-118.97 142.80 17.05 13
7 07/25/2024 06:43:22 47.04, 48.65 37.86 07/25/2024 06:43:57 47.00, 48.80 37.68 11.48 35
8 07/25/2024 07:33:53 -47.79,-143.73 141.83 07/25/2024 07:34:41 -47.78,-143.61 142.01 8.39 48



Historial Predications of SNOs between METOP-B and NOAA-19
